Lid_Strength_Index
1 2 3 3 11 11 15 13 9 10 10 6 6 7 8 8 9 13 2 1 0 0 -0 -1 -2 -2 -1 -1 -1 -1 -1 -1 -1 -1 -1 -1 -1 -1 -1 -1 -1 -1 -1 -1 -0 0 0 0 0
3 2 3 6 13 16 15 10 11 9 7 6 6 6 8 9 5 4 3 1 -0 -0 0 -0 -2 -2 -1 -1 -1 -1 -1 -1 -1 -1 -1 -1 -1 -1 -1 -1 -1 -1 -1 -1 -1 -1 -1 -1 -1
0 1 7 10 13 15 14 10 9 7 6 6 7 5 7 8 4 4 1 0 -0 -0 -0 -0 -2 -2 -1 -1 -1 -1 -1 -2 -2 -2 -1 -2 -1 -1 -1 -1 -1 -1 -1 -1 -1 -1 -1 -2 -1
2 4 6 12 15 11 11 9 7 7 6 5 6 9 5 3 4 2 0 0 0 0 -0 -1 -1 -1 -1 -1 -2 -1 -2 -1 -2 -1 -1 -1 -1 -1 -1 -1 -1 -1 -1 -1 -1 -1 -1 -2 -2
2 6 12 13 13 10 8 7 7 8 7 7 6 9 8 3 1 1 1 0 1 1 0 -0 -1 -1 -2 -2 -2 -2 -2 -2 -1 -2 -1 -1 -1 -1 -1 -1 -1 -1 -1 -1 -1 -1 -2 -2 -2
7 7 13 14 12 9 8 6 6 7 7 7 7 8 7 2 2 1 0 1 0 0 0 0 -1 -2 -2 -2 -2 -2 -2 -2 -2 -2 -2 -2 -1 -1 -1 -1 -1 -1 -1 -1 -1 -1 -2 -2 -2
8 11 13 12 11 10 8 6 7 7 7 7 5 9 7 4 2 1 1 0 0 0 0 0 0 -1 -2 -2 -2 -2 -2 -2 -2 -2 -2 -2 -2 -2 -2 -2 -2 -1 -2 -2 -2 -2 -2 -2 -2
7 9 11 11 11 10 7 6 5 6 7 4 4 9 8 4 2 1 1 1 1 1 1 1 1 0 1 0 -2 -2 -2 -2 -2 -2 -2 -2 -2 -2 -2 -2 -2 -2 -2 -2 -2 -2 -2 -2 -2
5 11 13 12 10 9 6 8 5 4 6 5 5 5 4 2 2 2 2 2 2 2 3 2 2 2 2 1 -0 -2 -2 -2 -2 -2 -2 -2 1 1 -0 -1 -2 -2 -2 -2 -2 -2 -2 -2 -2
8 12 11 7 7 9 7 7 6 6 7 6 6 4 3 3 3 3 4 3 3 3 3 3 1 1 1 -0 1 1 0 0 1 0 1 1 1 2 0 -1 -2 -2 -2 -2 -2 -2 -2 -1 1
8 10 7 7 6 6 6 6 5 7 9 7 7 6 4 4 4 4 3 3 3 3 3 3 2 2 2 2 2 2 1 1 1 1 1 1 1 2 2 1 0 0 -1 1 0 0 1 1 2
9 7 7 6 5 6 7 7 7 6 6 4 4 4 4 4 4 4 4 3 2 3 3 3 2 3 3 2 3 2 2 2 2 2 1 2 2 2 2 2 2 2 1 2 3 2 1 2 1
8 7 6 5 6 6 6 6 7 7 5 4 4 4 5 4 4 3 3 2 2 2 3 3 3 3 3 4 4 4 2 1 1 2 2 1 2 2 2 2 1 2 2 2 2 2 2 2 2
7 7 6 6 6 6 7 7 7 6 5 5 5 5 5 4 4 4 3 3 2 2 2 2 3 3 3 3 4 3 2 1 2 1 1 1 1 2 2 2 2 2 2 2 2 2 2 3 3
6 8 7 7 7 7 6 9 9 6 5 6 6 5 5 4 3 4 3 3 2 2 1 2 2 2 2 3 3 3 3 2 2 1 1 1 2 2 2 2 2 2 1 1 2 2 2 2 1
8 8 11 7 7 6 7 12 8 6 6 7 6 6 5 4 5 3 3 2 2 3 2 2 1 2 2 2 3 3 2 1 2 2 2 1 1 1 1 1 2 1 1 2 3 2 2 2 2
10 13 11 9 6 7 9 11 8 6 6 7 7 6 5 5 4 3 2 2 3 2 3 2 2 3 2 1 2 1 1 1 2 1 0 0 -0 -0 1 1 1 1 1 2 2 2 3 3 4
12 12 11 11 8 8 10 10 8 7 7 7 7 6 6 6 5 3 3 2 3 3 2 2 2 2 2 2 1 1 2 2 1 1 -0 -0 -0 -1 0 0 2 2 2 1 3 3 3 3 3
10 11 11 9 7 10 11 10 9 7 7 7 7 7 6 6 5 3 3 2 2 3 2 2 2 1 2 2 2 2 3 3 3 0 -0 -0 0 -0 0 1 2 2 2 2 2 3 3 3 3
9 10 10 9 8 9 11 11 9 8 8 7 7 7 6 6 5 4 3 3 2 2 2 2 2 2 2 1 1 2 2 2 2 1 1 0 1 1 1 3 3 3 3 3 3 4 4 4 3
9 11 10 10 9 9 11 12 11 8 8 7 7 6 6 6 6 6 4 3 3 3 3 3 3 2 2 3 3 4 3 3 2 2 3 2 1 2 3 2 3 3 3 4 4 4 4 5 4
11 8 8 10 11 14 10 16 12 10 10 8 8 7 7 6 5 4 5 4 3 3 3 4 4 3 4 4 4 5 5 4 3 3 3 2 2 2 2 2 2 3 3 3 3 3 3 2 4
9 8 9 10 12 13 13 15 13 11 11 11 9 7 7 6 5 5 4 3 3 4 5 5 5 5 4 4 5 4 4 4 3 3 3 3 2 1 0 1 1 1 1 2 2 1 2 3 2
7 9 11 12 13 16 14 14 14 13 11 10 8 7 6 6 5 4 3 4 4 5 6 6 5 5 5 5 4 3 3 4 4 5 4 3 3 2 2 1 0 1 1 1 0 0 1 1 1
10 13 16 17 17 17 13 15 14 10 9 8 8 8 7 5 5 5 4 5 5 5 4 4 4 2 3 3 3 3 4 4 5 5 5 5 4 3 3 3 2 2 1 1 1 2 1 1 2
11 12 15 20 20 18 14 17 14 9 8 7 7 7 6 6 5 5 4 4 4 4 4 3 3 4 4 4 4 3 4 4 4 5 5 4 3 3 3 3 3 3 2 2 2 2 2 1 2
11 13 11 16 16 18 16 14 10 9 9 8 8 7 7 6 6 5 5 5 4 4 4 3 4 5 5 4 4 5 5 6 6 6 5 5 5 4 4 4 3 3 3 2 2 2 2 1 1
10 9 15 15 21 22 17 17 16 12 11 9 9 8 7 6 6 5 4 5 4 4 4 5 5 5 5 5 6 6 6 6 6 6 6 5 5 6 4 3 3 2 1 2 2 2 2 1 1
12 13 13 14 15 19 20 18 11 11 10 10 9 8 7 6 6 5 4 4 5 5 5 5 5 6 6 6 6 7 7 6 7 7 6 6 6 5 4 3 2 2 2 2 2 2 2 1 2
10 12 12 16 17 16 17 17 9 9 8 8 8 7 6 6 5 5 5 5 5 5 5 6 7 7 7 7 7 8 7 7 8 7 5 6 5 5 5 4 3 2 2 2 2 2 2 2 2